Regional Weather Roundup
Issued by NWS Northern Indiana

Home | Current Version | Previous Version | Graphics & Text | Print | Product List | Glossary On
Versions: 1 2 3 4 5 6 7 8 9 10 11 12 13 14 15 16 17 18 19 20 21 22 23 24 25 26 27 28 29 30 31 32 33 34 35 36 37 38 39 40 41 42 43 44 45 46 47 48 49 50
000
ASUS43 KIWX 240510
RWRIWX

KIWX WEATHER ROUNDUP
NATIONAL WEATHER SERVICE NORTHERN INDIANA
100 AM EDT FRI MAR 24 2017

NOTE: "FAIR" INDICATES FEW OR NO CLOUDS BELOW 12,000 FEET WITH NO
SIGNIFICANT WEATHER AND/OR OBSTRUCTIONS TO VISIBILITY.

* THESE STATIONS ARE NOT UNDER NWS QUALITY CONTROL. THEY ALSO MAY NOT
  REPORT WEATHER SUCH AS PRECIPITATION OR FOG.

INZ001>027-240600-
NORTHERN INDIANA

CITY           SKY/WX    TMP DP  RH WIND       PRES   REMARKS
GARY*          PTCLDY    51  29  42 S7        30.02F
VALPARAISO     CLOUDY    48  34  58 S7        30.03F
MICHIGAN CITY* MOCLDY    46  32  57 S6        30.04S
LAPORTE*       MOCLDY    46  34  62 S7        30.04F
KNOX*          CLOUDY    48  10  21 S15G21    30.03F
SOUTH BEND     CLOUDY    48  34  58 S9        30.07S
GOSHEN         CLOUDY    48  34  58 S13       30.06F
LOGANSPORT*    PTCLDY    50  34  53 S15       30.06F
ROCHESTER*     PTCLDY    52  34  50 S10       30.06S
WARSAW*        MOCLDY    46  34  61 S7        30.06F
ANGOLA*        CLOUDY    43  36  75 SE9       30.09F
FORT WAYNE     CLOUDY    47  37  68 S13       30.09F
HUNTINGTON*    CLOUDY    48  35  60 S10       30.08F
PERU/GRISSOM   CLOUDY    50  35  55 SE10      30.04F
MARION*        PTCLDY    48  36  62 S14       30.09F

$$
INZ028>050-240600-
CENTRAL INDIANA

CITY           SKY/WX    TMP DP  RH WIND       PRES   REMARKS
LAFAYETTE      CLEAR     50  34  54 S14G21    30.04F
KOKOMO*        CLOUDY    49  35  58 S17       30.07F
MUNCIE*        MOCLDY    54  34  46 S16G22    30.11F
INDIANAPOLIS   CLOUDY    50  32  50 SE10      30.11F

$$
MIZ043>046-050>051-056>058-064>065-071>073-077>080-240600-
SOUTHWEST LOWER MICHIGAN

CITY           SKY/WX    TMP DP  RH WIND       PRES   REMARKS
BATTLE CREEK   LGT RAIN  41  37  86 SE6       30.11R
BENTON HARBOR  CLOUDY    43  36  76 E6        30.06F
COLDWATER*     LGT RAIN  42  35  74 SE5       30.11S
HILLSDALE*     CLOUDY    37  34  87 SE8       30.10F
HOLLAND        CLOUDY    43  37  79 S14G22    30.00F
GRAND RAPIDS   LGT RAIN  39  35  86 S16       30.03F
KALAMAZOO      CLOUDY    42  36  79 SE6       30.08F
STURGIS*       LGT RAIN  41  36  83 E7        30.09R
THREE RIVERS*  CLOUDY    42  36  79 SE5       30.10R

$$
OHZ001>008-015>018-024>025-240600-
NORTHWEST OHIO

CITY           SKY/WX    TMP DP  RH WIND       PRES   REMARKS
WAUSEON*       DRIZZLE   39  37  93 SE9       30.13F
DEFIANCE       CLOUDY    41  36  82 E6        30.14R
FINDLAY        LGT RAIN  45  34  65 S10       30.15F
TOLEDO EXPRESS RAIN      38  35  89 SE5       30.15F FOG
TOLEDO METCALF LGT RAIN  40  35  83 SE8       30.17F
LIMA           LGT RAIN  47  37  68 S7        30.16S

$$
AND FOR LAKE MICHIGAN COASTAL AND OPEN LAKE BUOY OBSERVATIONS

STATION/POSITION TEMP    WIND        PRES    VSBY  WAVE
                 AIR SEA DIR/SP/G                  HT/PER
                 (F)     (DEG/KT/KT) (MB)    (MI)  (FT/S)
CALUMET HARBOR    50     160/  6/  9 1015.9F
MICHIGAN CITY     49     150/ 14/ 17   N/A
BURNS HARBOR      50     180/ 12/ 16 1016.9F

$$
&&



USA.gov is the U.S. government's official web portal to all federal, state and local government web resources and services.